Change the Weather History Date:

Tuesday, January 24, 2012

  Actual Average (KHOT) Record (KHOT)
Temperature  
Mean Temperature 44 °F -  
Max Temperature 61 °F 52 °F 78 °F (1950)
Min Temperature 27 °F 32 °F 3 °F (1963)
Degree Days  
Heating Degree Days 21    
Moisture  
Dew Point 29 °F    
Average Humidity 59    
Maximum Humidity 92    
Minimum Humidity 26    
Precipitation  
Precipitation 0.12 in - - ()
Sea Level Pressure  
Sea Level Pressure 30.17 in    
Wind  
Wind Speed 3 mph (East)    
Max Wind Speed 9 mph    
Max Gust Speed 17 mph    
Visibility 10 miles    
Events Rain    
Averages and records for this station are not official NWS values.
T = Trace of Precipitation, MM = Missing Value Source: NWS Daily Summary

Daily Weather History Graph

Daily Weather History Graph

Search for Another Location

Airport or City:

Trip Planner

Search our weather history database for the weather conditions in past years. The results will help you decide how hot, cold, wet, or windy it might be!

Date:

Astronomy

Jan. 24, 2012 Rise Set
Actual Time 7:17 AM CST 5:32 PM CST
Civil Twilight 6:49 AM CST 5:59 PM CST
Nautical Twilight 6:19 AM CST 6:29 PM CST
Astronomical Twilight 5:48 AM CST 7:00 PM CST
Moon 7:51 AM CST (1/24) 7:18 PM CST (1/24)
Length of Visible Light 11h 09m
Length of Day
10h 14m
New Moon, 2% of the Moon is Illuminated
Jan 24
New Moon
Jan 30
First Quarter
Feb 7
Full
Feb 14
Last Quarter
Feb 21
New

Hourly Weather History & Observations

Time (CST) Temp. Windchill Dew Point Humidity Pressure Visibility Wind Dir Wind Speed Gust Speed Precip Events Conditions
12:53 AM 30.0 °F - 27.0 °F 88% 30.10 in 10.0 mi Calm Calm - N/A   Clear
1:53 AM 28.9 °F - 26.1 °F 89% 30.12 in 10.0 mi Calm Calm - N/A   Clear
2:53 AM 28.0 °F - 26.1 °F 92% 30.13 in 10.0 mi Calm Calm - N/A   Clear
3:53 AM 27.0 °F - 25.0 °F 92% 30.14 in 10.0 mi Calm Calm - N/A   Clear
5:53 AM 27.0 °F - 24.1 °F 89% 30.17 in 10.0 mi Calm Calm - N/A   Clear
6:53 AM 27.0 °F - 24.1 °F 89% 30.20 in 9.0 mi Calm Calm - N/A   Clear
8:53 AM 36.0 °F - 30.9 °F 82% 30.22 in 10.0 mi Calm Calm - N/A   Clear
9:53 AM 46.0 °F 44.8 °F 32.0 °F 58% 30.25 in 10.0 mi Variable 3.5 mph - N/A   Clear
10:53 AM 51.1 °F - 28.9 °F 43% 30.25 in 10.0 mi East 6.9 mph - N/A   Clear
11:53 AM 54.0 °F - 28.9 °F 38% 30.22 in 10.0 mi Variable 6.9 mph - N/A   Clear
12:53 PM 57.9 °F - 30.0 °F 35% 30.19 in 10.0 mi East 8.1 mph - N/A   Clear
1:53 PM 60.1 °F - 26.1 °F 27% 30.16 in 10.0 mi ESE 8.1 mph - N/A   Clear
3:53 PM 61.0 °F - 26.1 °F 26% 30.14 in 10.0 mi Variable 6.9 mph - N/A   Clear
4:53 PM 59.0 °F - 27.0 °F 29% 30.12 in 10.0 mi East 5.8 mph - N/A   Clear
5:53 PM 55.0 °F - 27.0 °F 34% 30.13 in 10.0 mi East 6.9 mph - N/A   Clear
6:53 PM 54.0 °F - 28.0 °F 37% 30.15 in 10.0 mi East 6.9 mph - N/A   Clear
7:53 PM 54.0 °F - 28.9 °F 38% 30.15 in 10.0 mi East 9.2 mph 17.3 mph N/A   Clear
8:53 PM 52.0 °F - 30.0 °F 43% 30.17 in 10.0 mi East 3.5 mph - N/A   Clear
9:53 PM 51.1 °F - 32.0 °F 48% 30.20 in 10.0 mi East 5.8 mph - N/A   Overcast
10:53 PM 46.0 °F 44.8 °F 39.0 °F 76% 30.17 in 10.0 mi ESE 3.5 mph - 0.04 in Rain Light Rain
11:53 PM 45.0 °F 43.5 °F 39.9 °F 82% 30.15 in 10.0 mi Variable 3.5 mph - 0.08 in Rain Light Rain